Flag for Germany Weather past 2 weeks in Norden, Lower Saxony, Germany

Now
68 °F

Clear.


Feels Like: 68 °F
Forecast: 63 / 69 °F
Wind: 10 mph from Northeast

Location: Norderney

Current Time: Jul 29, 2014 at 5:44:03 AM

Latest Report: Jul 29, 2014 at 5:00 AM


Visibility: 6 mi

Pressure: 29.90 "Hg

Humidity: 88%

Dew point: 64 °F

Location of NordenLocation

Historic Weather in Norden — Graph

°F

Norden temperature yesterday

Maximum temperature yesterday: 73 °F (at 4:00 PM)
Minimum temperature yesterday: 66 °F (at 3:00 AM)
Average temperature yesterday: 69 °F

Past Weeks' High & Low Weather Summary

 TemperatureHumidityPressure
High92 °F (Jul 19, 4:00 PM)96% (Jul 21, 9:00 AM)30.20 "Hg (Jul 21, 9:00 AM)
Low61 °F (Jul 15, 7:00 AM)26% (Jul 19, 6:00 PM)29.70 "Hg (Jul 14, 4:00 AM)
Average69 °F78%30.01 "Hg
* Reported Jul 14 4:00 AM — Jul 29 4:00 AM, Norden, Weather by CustomWeather, © 2014

Note: Actual official high and low records may vary slightly from our data, if they occured in-between our weather recording intervals... More about our weather records

Advertising

Norden weather history for previous 24 hours

 ConditionsComfort  
Time TempWeatherWind HumidityBarometerVisibility
4:00 AM
Jul 29
68 °FClear.10 mph87%29.90 "Hg7 mi
3:00 AM68 °FClear.10 mph88%29.91 "Hg6 mi
2:00 AM68 °FClear.10 mph88%29.92 "Hg5 mi
1:00 AM69 °FClear.12 mph88%29.93 "Hg5 mi
12:00 AM69 °FClear.12 mph89%29.92 "Hg7 mi
11:00 PM
Jul 28
69 °FClear.10 mph89%29.93 "Hg5 mi
10:00 PM69 °FPassing clouds.10 mph88%29.94 "Hg5 mi
9:00 PM70 °FOvercast.10 mph88%29.93 "Hg19 mi
8:00 PM70 °FOvercast.10 mph86%29.92 "Hg19 mi
7:00 PM71 °FPartly sunny.10 mph83%29.91 "Hg19 mi
6:00 PM71 °FScattered clouds.10 mph81%29.91 "Hg22 mi
5:00 PM72 °FScattered clouds.9 mph78%29.93 "Hg25 mi
4:00 PM73 °FScattered clouds.9 mph77%29.94 "Hg25 mi
3:00 PM73 °FPartly sunny.9 mph75%29.95 "Hg25 mi
2:00 PM72 °FPartly sunny.9 mph76%29.96 "Hg22 mi
1:00 PM72 °FPartly sunny.8 mph76%29.96 "Hg22 mi
12:00 PM72 °FPartly sunny.8 mph77%29.96 "Hg22 mi
11:00 AM70 °FPartly sunny.6 mph79%29.97 "Hg22 mi
10:00 AM70 °FPartly sunny.6 mph77%29.97 "Hg22 mi
9:00 AM68 °FOvercast.5 mph81%29.98 "Hg19 mi
8:00 AM68 °FOvercast.6 mph81%29.97 "Hg19 mi
7:00 AM67 °FPartly sunny.5 mph86%29.97 "Hg14 mi
6:00 AM66 °FScattered clouds.6 mph87%29.96 "Hg11 mi
5:00 AM67 °FClear.6 mph86%29.97 "Hg11 mi
Weather by CustomWeather, © 2014

See weather overviewHow to use our weather pages